Sauk Centre, MN

6:50 PM CDT on October 22, 2019 (GMT -0500)
Sauk Centre

Weather History for KD39 - August, 2019

Change the Weather History Date:

Thursday, August 29, 2019

  Actual Average (WUND) Record (WUND)
Temperature  
Mean Temperature 59 °F -  
Max Temperature 68 °F - - (-1)
Min Temperature 50 °F - - (-1)
Degree Days  
Heating Degree Days 6    
Growing Degree Days 9 (Base 50)    
Moisture  
Dew Point 50 °F    
Average Humidity 72    
Maximum Humidity 93    
Minimum Humidity 52    
Precipitation  
Precipitation 0.00 in - - ()
Sea Level Pressure  
Sea Level Pressure 29.88 in    
Wind  
Wind Speed 10 mph ()    
Max Wind Speed 24 mph    
Max Gust Speed 33 mph    
Visibility 10.0 miles    
Events      
Averages and records for this station are not official NWS values.
T = Trace of Precipitation, MM = Missing Value Source: Averaged Metar Reports

Daily Weather History Graph

Daily Weather History Graph

Search for Another Location

Airport or City:

Astronomy

Aug. 29, 2019 Rise Set
Actual Time 6:36 AM CDT 8:03 PM CDT
Civil Twilight 6:05 AM CDT 8:34 PM CDT
Nautical Twilight 5:28 AM CDT 9:11 PM CDT
Astronomical Twilight 4:48 AM CDT 9:51 PM CDT
Moon 5:16 AM CDT (8/29) 8:05 PM CDT (8/29)
Length of Visible Light 14h 28m
Length of Day
13h 26m
Waning Crescent, 1% of the Moon is Illuminated
Aug 29
Waning Crescent
Aug 30
New
Sep 5
First Quarter
Sep 13
Full
Sep 21
Last Quarter

Hourly Weather History & Observations

Time (CDT) Temp. Dew Point Humidity Pressure Visibility Wind Dir Wind Speed Gust Speed Precip Events Conditions
12:15 AM 52.3 °F 50.4 °F 93% 29.85 in 10.0 mi South 4.6 mph - N/A   Clear
12:16 AM 52.5 °F 50.4 °F 92% 29.85 in 10.0 mi South 4.6 mph - N/A   Clear
12:37 AM 52.9 °F 50.7 °F 92% 29.84 in 10.0 mi South 3.5 mph - N/A   Clear
12:55 AM 54.1 °F 51.6 °F 91% 29.83 in 10.0 mi South 5.8 mph - N/A   Clear
1:17 AM 53.2 °F 50.9 °F 92% 29.82 in 10.0 mi South 3.5 mph - N/A   Clear
1:37 AM 53.1 °F 50.9 °F 92% 29.82 in 10.0 mi South 3.5 mph - N/A   Clear
1:56 AM 53.6 °F 51.3 °F 92% 29.80 in 10.0 mi South 5.8 mph - N/A   Clear
2:15 AM 53.6 °F 51.1 °F 91% 29.80 in 10.0 mi South 5.8 mph - N/A   Clear
2:16 AM 53.6 °F 51.1 °F 91% 29.80 in 10.0 mi South 5.8 mph - N/A   Clear
2:35 AM 53.1 °F 50.9 °F 92% 29.79 in 10.0 mi South 5.8 mph - N/A   Clear
2:39 AM 53.1 °F 51.1 °F 93% 29.79 in 10.0 mi South 4.6 mph - N/A   Clear
2:58 AM 53.2 °F 51.1 °F 92% 29.78 in 10.0 mi South 6.9 mph - N/A   Clear
3:17 AM 52.9 °F 50.7 °F 92% 29.78 in 10.0 mi SSE 5.8 mph - N/A   Clear
3:36 AM 53.6 °F 51.1 °F 91% 29.77 in 10.0 mi South 5.8 mph - N/A   Clear
3:55 AM 53.6 °F 50.9 °F 91% 29.76 in 10.0 mi SSE 4.6 mph - N/A   Clear
3:56 AM 53.6 °F 50.9 °F 91% 29.76 in 10.0 mi SSE 4.6 mph - N/A   Clear
4:15 AM 53.6 °F 51.1 °F 91% 29.74 in 10.0 mi South 5.8 mph - N/A   Clear
4:19 AM 53.6 °F 51.1 °F 91% 29.74 in 10.0 mi South 5.8 mph - N/A   Clear
4:38 AM 55.2 °F 51.6 °F 88% 29.72 in 10.0 mi SSW 9.2 mph - N/A   Mostly Cloudy
4:55 AM 56.8 °F 51.4 °F 82% 29.71 in 10.0 mi SSW 11.5 mph - N/A   Overcast
5:16 AM 58.1 °F 52.0 °F 80% 29.70 in 10.0 mi SSW 12.7 mph - N/A   Overcast
5:35 AM 58.3 °F 52.9 °F 82% 29.70 in 10.0 mi SSW 10.4 mph 17.3 mph N/A   Mostly Cloudy
5:36 AM 58.3 °F 52.9 °F 82% 29.70 in 10.0 mi SSW 10.4 mph 17.3 mph N/A   Scattered Clouds
5:55 AM 60.4 °F 54.5 °F 81% 29.72 in 10.0 mi WSW 11.5 mph - N/A   Scattered Clouds
5:56 AM 60.4 °F 54.5 °F 81% 29.72 in 10.0 mi WSW 12.7 mph - N/A   Scattered Clouds
6:15 AM 59.9 °F 54.0 °F 81% 29.72 in 10.0 mi WSW 10.4 mph 17.3 mph N/A   Scattered Clouds
6:20 AM 59.4 °F 53.8 °F 82% 29.72 in 10.0 mi WSW 10.4 mph - N/A   Clear
6:38 AM 58.3 °F 54.5 °F 87% 29.74 in 10.0 mi WSW 9.2 mph - N/A   Clear
6:55 AM 58.5 °F 55.0 °F 88% 29.74 in 10.0 mi West 11.5 mph - N/A   Clear
7:15 AM 59.2 °F 55.0 °F 86% 29.75 in 10.0 mi West 11.5 mph - N/A   Clear
7:16 AM 59.0 °F 54.9 °F 86% 29.75 in 10.0 mi West 11.5 mph - N/A   Clear
7:35 AM 58.6 °F 54.0 °F 84% 29.76 in 10.0 mi West 9.2 mph - N/A   Clear
7:36 AM 58.6 °F 54.0 °F 84% 29.76 in 10.0 mi West 10.4 mph - N/A   Clear
7:59 AM 59.5 °F 53.2 °F 80% 29.77 in 10.0 mi WNW 10.4 mph - N/A   Clear
8:16 AM 60.8 °F 52.5 °F 74% 29.78 in 10.0 mi WNW 10.4 mph 19.6 mph N/A   Clear
8:35 AM 61.3 °F 52.9 °F 74% 29.79 in 10.0 mi WNW 10.4 mph 20.7 mph N/A   Clear
8:55 AM 62.4 °F 52.5 °F 70% 29.79 in 10.0 mi WNW 16.1 mph 21.9 mph N/A   Clear
8:56 AM 62.4 °F 52.5 °F 70% 29.79 in 10.0 mi WNW 17.3 mph 21.9 mph N/A   Clear
9:15 AM 62.8 °F 50.9 °F 65% 29.80 in 10.0 mi WNW 20.7 mph 27.6 mph N/A   Clear
9:16 AM 63.0 °F 50.9 °F 65% 29.80 in 10.0 mi WNW 18.4 mph 26.5 mph N/A   Clear
9:39 AM 63.7 °F 50.4 °F 62% 29.81 in 10.0 mi NW 21.9 mph 28.8 mph N/A   Clear
9:57 AM 63.9 °F 50.0 °F 61% 29.82 in 10.0 mi NW 24.2 mph 29.9 mph N/A   Clear
10:16 AM 64.4 °F 49.8 °F 59% 29.83 in 10.0 mi NW 24.2 mph 29.9 mph N/A   Clear
10:35 AM 65.1 °F 50.4 °F 59% 29.84 in 10.0 mi NW 20.7 mph 27.6 mph N/A   Clear
10:36 AM 65.1 °F 50.2 °F 58% 29.84 in 10.0 mi WNW 21.9 mph 27.6 mph N/A   Clear
10:55 AM 65.1 °F 49.6 °F 57% 29.85 in 10.0 mi NW 23.0 mph 28.8 mph N/A   Clear
10:59 AM 64.9 °F 49.1 °F 56% 29.85 in 10.0 mi NW 24.2 mph 33.4 mph N/A   Clear
11:18 AM 64.8 °F 48.9 °F 56% 29.86 in 10.0 mi NW 21.9 mph 29.9 mph N/A   Clear
11:35 AM 65.8 °F 49.6 °F 56% 29.87 in 10.0 mi WNW 19.6 mph 27.6 mph N/A   Clear
11:55 AM 65.5 °F 49.3 °F 56% 29.88 in 10.0 mi NW 21.9 mph 28.8 mph N/A   Scattered Clouds
11:56 AM 65.5 °F 49.3 °F 56% 29.88 in 10.0 mi NW 20.7 mph 28.8 mph N/A   Scattered Clouds
12:15 PM 66.0 °F 49.3 °F 55% 29.89 in 10.0 mi NW 21.9 mph 26.5 mph N/A   Scattered Clouds
12:16 PM 66.2 °F 49.1 °F 54% 29.89 in 10.0 mi NW 21.9 mph 26.5 mph N/A   Scattered Clouds
12:39 PM 65.8 °F 48.7 °F 54% 29.89 in 10.0 mi NW 19.6 mph 28.8 mph N/A   Scattered Clouds
12:56 PM 66.7 °F 49.5 °F 54% 29.90 in 10.0 mi NW 23.0 mph 28.8 mph N/A   Scattered Clouds
1:16 PM 66.0 °F 48.2 °F 53% 29.90 in 10.0 mi NNW 21.9 mph 27.6 mph N/A   Scattered Clouds
1:35 PM 66.2 °F 48.0 °F 52% 29.91 in 10.0 mi NW 19.6 mph 28.8 mph N/A   Scattered Clouds
1:55 PM 66.9 °F 49.1 °F 53% 29.93 in 10.0 mi NW 16.1 mph 25.3 mph N/A   Mostly Cloudy
1:59 PM 67.3 °F 49.8 °F 53% 29.92 in 10.0 mi NW 18.4 mph 25.3 mph N/A   Mostly Cloudy
2:19 PM 66.4 °F 48.7 °F 53% 29.92 in 7.0 mi NW 19.6 mph 26.5 mph N/A   Mostly Cloudy
2:36 PM 66.2 °F 48.9 °F 54% 29.93 in 10.0 mi NW 20.7 mph 25.3 mph N/A   Scattered Clouds
2:55 PM 66.2 °F 48.6 °F 53% 29.93 in 10.0 mi NW 20.7 mph 26.5 mph N/A   Scattered Clouds
3:15 PM 66.2 °F 48.7 °F 53% 29.94 in 10.0 mi NW 17.3 mph 25.3 mph N/A   Scattered Clouds
3:16 PM 66.2 °F 48.6 °F 53% 29.94 in 10.0 mi NW 16.1 mph 25.3 mph N/A   Scattered Clouds
3:35 PM 66.6 °F 49.5 °F 54% 29.94 in 10.0 mi NW 16.1 mph 25.3 mph N/A   Mostly Cloudy
3:36 PM 66.6 °F 49.3 °F 54% 29.94 in 10.0 mi NW 15.0 mph 25.3 mph N/A   Mostly Cloudy
3:55 PM 67.8 °F 50.4 °F 54% 29.94 in 10.0 mi NW 17.3 mph 23.0 mph N/A   Mostly Cloudy
3:56 PM 67.8 °F 50.4 °F 54% 29.94 in 10.0 mi NW 18.4 mph 23.0 mph N/A   Mostly Cloudy
4:18 PM 65.8 °F 48.9 °F 54% 29.95 in 10.0 mi NW 17.3 mph 24.2 mph N/A   Scattered Clouds
4:35 PM 68.0 °F 50.5 °F 54% 29.95 in 10.0 mi WNW 16.1 mph 21.9 mph N/A   Mostly Cloudy
4:55 PM 67.1 °F 49.1 °F 52% 29.96 in 10.0 mi WNW 17.3 mph 20.7 mph N/A   Scattered Clouds
4:56 PM 67.1 °F 49.1 °F 52% 29.96 in 10.0 mi NW 17.3 mph 20.7 mph N/A   Scattered Clouds
5:15 PM 66.7 °F 49.1 °F 53% 29.96 in 10.0 mi NW 15.0 mph 20.7 mph N/A   Clear
5:16 PM 66.7 °F 49.1 °F 53% 29.96 in 10.0 mi NW 16.1 mph 20.7 mph N/A   Clear
5:56 PM 66.4 °F 48.7 °F 53% 29.96 in 10.0 mi NW 13.8 mph 23.0 mph N/A   Clear
6:15 PM 66.2 °F 48.7 °F 53% 29.97 in 10.0 mi NW 13.8 mph 20.7 mph N/A   Clear
6:16 PM 66.2 °F 48.7 °F 53% 29.97 in 10.0 mi NW 12.7 mph 20.7 mph N/A   Clear
6:35 PM 65.7 °F 48.7 °F 54% 29.97 in 10.0 mi NW 12.7 mph - N/A   Clear
6:36 PM 65.7 °F 48.7 °F 54% 29.97 in 10.0 mi NW 12.7 mph - N/A   Clear
6:55 PM 65.5 °F 49.3 °F 56% 29.98 in 10.0 mi NW 11.5 mph - N/A   Clear
7:17 PM 64.6 °F 48.7 °F 56% 29.98 in 10.0 mi WNW 10.4 mph - N/A   Clear
7:35 PM 62.8 °F 49.6 °F 62% 29.99 in 10.0 mi WNW 8.1 mph - N/A   Clear
7:55 PM 61.0 °F 49.8 °F 67% 29.99 in 10.0 mi WNW 5.8 mph - N/A   Clear
7:56 PM 60.8 °F 50.0 °F 68% 29.99 in 10.0 mi WNW 5.8 mph - N/A   Clear
8:15 PM 58.8 °F 49.5 °F 71% 29.99 in 10.0 mi WNW 5.8 mph - N/A   Clear
8:16 PM 58.8 °F 49.5 °F 71% 29.99 in 10.0 mi WNW 5.8 mph - N/A   Clear
8:35 PM 56.1 °F 49.6 °F 79% 30.00 in 10.0 mi West 3.5 mph - N/A   Clear
8:40 PM 55.8 °F 49.6 °F 80% 30.00 in 10.0 mi West 5.8 mph - N/A   Clear
8:57 PM 54.5 °F 49.3 °F 83% 30.02 in 10.0 mi West 4.6 mph - N/A   Clear
9:15 PM 54.5 °F 49.3 °F 83% 30.02 in 10.0 mi West 4.6 mph - N/A   Clear
9:35 PM 53.2 °F 48.7 °F 85% 30.04 in 10.0 mi West 5.8 mph - N/A   Clear
9:36 PM 53.1 °F 48.7 °F 85% 30.04 in 10.0 mi West 5.8 mph - N/A   Clear
9:55 PM 52.7 °F 49.1 °F 88% 30.04 in 10.0 mi West 3.5 mph - N/A   Clear
10:19 PM 52.5 °F 48.6 °F 86% 30.05 in 10.0 mi NW 3.5 mph - N/A   Clear
10:36 PM 52.0 °F 48.2 °F 87% 30.05 in 10.0 mi Calm Calm - N/A   Clear
10:55 PM 52.0 °F 48.4 °F 88% 30.06 in 10.0 mi West 3.5 mph - N/A   Clear
11:15 PM 51.6 °F 48.2 °F 88% 30.07 in 10.0 mi West 4.6 mph - N/A   Clear
11:16 PM 51.6 °F 48.2 °F 88% 30.07 in 10.0 mi West 3.5 mph - N/A   Clear
11:35 PM 50.9 °F 48.0 °F 90% 30.07 in 10.0 mi West 4.6 mph - N/A   Clear
11:36 PM 50.9 °F 48.0 °F 90% 30.07 in 10.0 mi West 4.6 mph - N/A   Clear
11:58 PM 51.1 °F 47.8 °F 89% 30.07 in 10.0 mi Calm Calm - N/A   Clear